CW9181 Weather Reports


time (UTC)temp
F
wind
direction
speed
knots
gust
knots
rain 1hr
in
rain 24hr
in
rain mn
in
humidity
%
barometer
mb
20260504220833 58 104 2.6 6.1 0.03 0.07 0.07 86 1015.4
20260504215833 58 122 3.5 6.1 0.02 0.06 0.07 85 1015.3
20260504214809 58 110 2.6 5.2 0.02 0.06 0.06 83 1015.4
20260504213806 58 128 2.6 5.2 0.01 0.05 0.05 82 1015.3
20260504212805 59 93 1.7 6.1 0.01 0.05 0.05 81 1015.5
20260504211806 59 174 2.6 5.2 0.00 0.04 0.04 81 1015.4
20260504210805 59 124 1.7 6.1 0.00 0.04 0.04 81 1015.6
20260504205808 59 182 1.7 6.1 0.00 0.04 0.04 81 1015.4
20260504204810 59 174 1.7 3.5 0.00 0.04 0.04 83 1015.3
20260504203807 59 149 3.5 7.0 0.01 0.04 0.04 81 1015.5
20260504202808 59 153 4.3 6.1 0.01 0.04 0.04 83 1015.2
20260504201809 59 152 2.6 6.1 0.01 0.04 0.04 83 1015.4
20260504200804 59 134 0.0 2.6 0.01 0.04 0.04 83 1015.2
20260504195803 58 181 0.9 3.5 0.01 0.04 0.04 82 1015.3
20260504194807 58 249 0.0 3.5 0.01 0.04 0.04 81 1015.4
20260504193810 58 138 1.7 5.2 0.00 0.03 0.03 81 1015.6
20260504192802 58 140 0.9 5.2 0.00 0.03 0.03 81 1015.6
20260504191826 58 151 2.6 7.0 0.00 0.03 0.03 83 1015.5
20260504190805 58 218 2.6 4.3 0.00 0.03 0.03 84 1015.4
20260504185802 57 195 0.9 7.8 0.00 0.03 0.03 84 1015.5
20260504184805 57 232 2.6 7.8 0.01 0.03 0.03 84 1015.6
20260504183806 57 158 2.6 8.7 0.02 0.03 0.03 84 1015.7
20260504182813 57 168 2.6 7.8 0.03 0.03 0.03 85 1015.7
20260504181813 57 141 1.7 3.5 0.03 0.03 0.03 86 1015.8
20260504180813 57 142 1.7 3.5 0.03 0.03 0.03 86 1015.8
20260504175831 56 150 2.6 7.8 0.03 0.03 0.03 85 1015.6
20260504174831 57 170 2.6 6.1 0.02 0.02 0.02 83 1015.4
20260504173815 57 186 2.6 7.0 0.01 0.01 0.01 82 1015.3
20260504172808 57 157 3.5 8.7 0.00 0.00 0.00 81 1015.2
20260504171826 57 163 2.6 8.7 0.00 0.00 0.00 79 1015.2
20260504170818 57 184 2.6 7.8 0.00 0.00 0.00 79 1015.2
20260504150817 56 120 4.3 7.8 0.00 0.00 0.00 82 1014.8
20260504140815 55 107 3.5 6.1 0.00 0.00 0.00 85 1014.7
20260504130813 55 154 3.5 7.8 0.00 0.00 0.00 84 1014.3
20260504081812 55 189 2.6 5.2 0.00 0.00 0.00 80 1014.1
20260504080816 55 126 2.6 5.2 0.00 0.00 0.00 80 1014.3
20260504045813 60 187 1.7 6.1 0.00 0.00 0.00 69 1013.4
20260504044831 60 176 4.3 7.0 0.00 0.00 0.00 68 1013.3
20260504043809 61 197 2.6 5.2 0.00 0.00 0.00 68 1013.2
20260504042807 61 241 0.9 6.1 0.00 0.00 0.00 68 1013.0
20260504041804 61 141 2.6 7.8 0.00 0.00 0.00 67 1012.9
20260504040804 62 214 1.7 9.6 0.00 0.00 0.00 66 1012.9
20260504035839 62 252 2.6 8.7 0.00 0.00 0.00 66 1012.7
20260504034818 62 214 5.2 10.4 0.00 0.00 0.00 65 1012.6
20260504033819 62 203 3.5 7.8 0.00 0.00 0.00 65 1012.6
20260504032814 62 172 3.5 11.3 0.00 0.00 0.00 64 1012.5
20260504031815 63 208 1.7 9.6 0.00 0.00 0.00 64 1012.4
20260504030816 63 201 2.6 7.8 0.00 0.00 0.00 63 1012.3
20260504025811 64 224 3.5 8.7 0.00 0.00 0.00 62 1012.2
20260504024809 64 159 2.6 8.7 0.00 0.00 0.00 60 1011.9
20260504023808 65 182 4.3 9.6 0.00 0.00 0.00 59 1011.9
20260504022824 65 193 3.5 9.6 0.00 0.00 0.00 59 1011.8
20260504021822 66 208 3.5 9.6 0.00 0.00 0.00 58 1011.9
20260504020804 66 212 3.5 8.7 0.00 0.00 0.00 57 1011.6
20260504015816 67 192 1.7 7.0 0.00 0.00 0.00 56 1011.7
20260504014815 68 228 1.7 10.4 0.00 0.00 0.00 56 1011.8
20260504013836 68 260 4.3 11.3 0.00 0.00 0.00 55 1011.6
20260504012808 68 196 4.3 13.0 0.00 0.00 0.00 54 1011.4
20260504011828 69 260 5.2 8.7 0.00 0.00 0.00 53 1011.3
20260504010806 70 260 1.7 8.7 0.00 0.00 0.00 52 1011.4
20260504005821 70 228 3.5 9.6 0.00 0.00 0.00 53 1011.4
20260504004803 69 238 2.6 7.8 0.00 0.00 0.00 53 1011.3
20260504003822 69 238 5.2 10.4 0.00 0.00 0.00 53 1011.4
20260504002838 69 238 4.3 9.6 0.00 0.00 0.00 53 1011.3
20260504001817 69 239 3.5 9.6 0.00 0.00 0.00 53 1011.3
20260504000814 70 162 3.5 11.3 0.00 0.00 0.00 54 1011.3
20260503235811 70 203 3.5 7.8 0.00 0.00 0.00 54 1011.4
20260503234804 69 193 0.9 5.2 0.00 0.00 0.00 55 1011.5
20260503233804 68 137 2.6 7.0 0.00 0.00 0.00 57 1011.7
20260503232820 68 167 2.6 4.3 0.00 0.00 0.00 56 1012.0
20260503231819 68 239 1.7 7.8 0.00 0.00 0.00 58 1012.0
20260503230820 68 224 1.7 6.1 0.00 0.00 0.00 58 1012.0
20260503225814 67 89 3.5 6.1 0.00 0.00 0.00 58 1012.1
20260503224817 68 229 2.6 8.7 0.00 0.00 0.00 58 1011.9
20260503223817 67 169 2.6 6.1 0.00 0.00 0.00 60 1012.0
20260503222815 66 123 2.6 9.6 0.00 0.00 0.00 59 1012.0
20260503221816 67 189 5.2 9.6 0.00 0.00 0.00 59 1012.0